Location: Boullarre
(49.1305°N, 3.0047°E)
Time: 11:41:30
(UTC+00:00)

Meteor 2-12 Rocket - Pass Details

Date: 03 February 2023
Orbit: 935 x 958 km, 82.5° (Epoch: 23 March)

Event Time Altitude Azimuth Distance (km) Brightness Sun altitude
Rises 18:16:42 0° 350° (N) 3,624 7.5 -14.8°
Reaches altitude 10° 18:19:13 10° 351° (N) 2,672 6.8 -15.2°
Maximum altitude 18:25:20 84° 80° (E) 951 4.4 -16.2°
Drops below altitude 10° 18:31:23 10° 169° (S) 2,641 6.7 -17.1°
Sets 18:33:51 0° 170° (S) 3,580 7.4 -17.5°
